NOAA 16 DEB, 41360

Orbit data source: Space-Track

NOAA 16 DEB, 41360 is space debris in SSO originally from a launch on Thu, 21 Sep 2000 UTC launched from the Air Force Western Test Range (AFWTR). Debris objects in space refer to the collection of defunct objects orbiting the Earth. Examples of debris include non-operational satellites, rocket bodies, and fragments generated from explosions, collisions, or faulty payload assembly.

Loading next visibility...
Identifier
41360, 2000-055JD
Orbit
SSO
Country
Flag of USUS
Related business
Manufacturer
Unknown
Mission
Spacecraft
Bus & Motor
Unknown
Mass
Unknown
Launch date (UTC)
2000-09-21 (25 years ago)
Launch vehicle
Unknown
Launch site
Air Force Western Test Range (AFWTR)
Object type
Payload
Rocket body
Debris
Shape & HBR
Unknown shape, 0.1 m
Radar Cross Section
Small (<0.1 m²)

Expand to show TLE details & history
Last TLE update: 6 hours ago

TLE from 6 hours ago
0 NOAA 16 DEB
1 41360U 00055JD  26038.28536660  .00006311  00000-0  23627-2 0  9992
2 41360  98.8863 161.3512 0021013  32.6847 327.5631 14.31979147518630
Epoch: 2026-02-07T06:50Z
TLE epoch observation values (Epoch: 2026-02-07T06:50:55.674Z)
Latitude
-0.00003°
Longitude
-78.79185°
Altitude
775.351 km
Speed
7.473 km/s
True Right ascension
10h 45m 24s
True Declination
0° 00' 00"
Sunlit
Object was in full shadow at epoch
Visualization orbit readout
Latitude
Unknown
Longitude
Unknown
Altitude
Unknown
Speed
Unknown
Apparent Right ascension
Unknown
Apparent Declination
Unknown
Sunlit
N/A
Visualization observer readout
Local Sidereal Time
14:56:22
Azimuth
Unknown
Elevation
Unknown
Doppler factor
Unknown
Orbital elements
Apogee altitude
797.32 km
Perigee altitude
767.228 km
Semi-major axis
7,160.411 km
Eccentricity
0.0021
Inclination
98.8863°
RAAN
161.3512°
Arg. of periapsis
32.6847°
True anomaly
327.43366°
Mean anomaly
327.5631°
Eccentric anomaly
327.49841°
Mean motion
3.58209 °/min
Orbital period
100.5 mins
BSTAR
0.0023627
Loading maneuver chart data...
Computing Atmospheric mass density...
Loading historical data...
Loading historical data...
Loading historical data...
Loading historical data...
Loading historical data...
Loading historical data...
Loading historical data...

Documentation

Showing up to 5 results
|